Regional Weather Roundup
Issued by NWS

Home | Current Version | Previous Version | Graphics & Text | Print | Product List | Glossary On
Versions: 1 2 3 4 5 6 7 8 9 10 11 12 13 14 15 16 17 18 19 20 21 22 23 24 25 26 27 28 29 30 31 32 33 34 35 36 37 38 39 40 41 42 43 44 45 46 47 48 49 50
000
ASUS45 KTFX 211804
RWRMT
MONTANA HOURLY WEATHER ROUNDUP
NATIONAL WEATHER SERVICE GREAT FALLS MT
1104 AM MST SUN DEC 21 2014

NOTE: "FAIR" INDICATES FEW OR NO CLOUDS BELOW 12000 FEET WITH NO
SIGNIFICANT WEATHER AND/OR OBSTRUCTIONS TO VISIBILITY.

* THESE STATIONS ARE NOT UNDER NWS QUALITY CONTROL. THEY DO NOT
   REPORT WEATHER SUCH AS PRECIPITATION OR FOG.

MTZ001>007-043-211900-
WEST OF THE DIVIDE
CITY           SKY/WX    TMP DP  RH WIND       PRES   REMARKS
KALISPELL      CLOUDY    39  34  82 S7        29.56R WCI  34
MISSOULA       PTSUNNY   43  36  76 NW14G24   29.66R
BUTTE          CLOUDY    36  28  73 W16       29.60R WCI  26
MULLAN PASS    CLOUDY   N/A N/A N/A N/A       29.65R
* ESSEX        N/A       35  32  89 NW12G20    N/A   WCI  27
* LINCOLN      N/A       35  32  89 SW9G24     N/A   WCI  28
* POLSON       N/A       40  38  93 W3G12      N/A
* RONAN APT    PTCLDY    45  37  74 SW5        N/A
* SEELEY LAKE  N/A       36  32  85 NE4G9      N/A
* THOMP F APT  PTSUNNY   31  30  96 NE2        N/A
$$

MTZ008-052>055-211900-
SOUTHWEST MONTANA
CITY           SKY/WX    TMP DP  RH WIND       PRES   REMARKS
BOZEMAN        CLOUDY    39  34  82 W9        29.56R WCI  33
DILLON         CLOUDY    37  32  82 SW28G35   29.61R WCI  25
* W YELLOWSTON CLOUDY    32  29  89 SW5G12     N/A   WCI  27
* THREE FORKS  PTSUNNY   43  43 100 W9         N/A
* BOULDER HILL N/A       35  30  82 NE1G12     N/A
* MONIDA PASS  N/A       29  29 100 SE8        N/A   WCI  21
* RAYNOLDS PAS N/A       32  21  64 NE4G14     N/A
* WHITEHALL    N/A       41  34  76 SW9G19     N/A
* WISE RIVER   N/A       37  29  73 NW17G25    N/A   WCI  27
$$

MTZ009>010-012-014-046-048-049-054-211900-
EAST SLOPES AND CENTRAL MONTANA
CITY           SKY/WX    TMP DP  RH WIND       PRES   REMARKS
CUT BANK       PTSUNNY   39  30  70 W18       29.33R WCI  30
GREAT FALLS    PTSUNNY   48  30  50 SW26G33   29.37R
HELENA         LGT RAIN  41  34  76 W30G44    29.54R
* DEARBORN     N/A       43  34  71 S17G29     N/A
* EAST GLACIER N/A       34  31  89 SW8G16     N/A   WCI  27
* MONARCH      N/A       39  22  51 SW20G30    N/A   WCI  29
* PENDROY      N/A       40  32  73 N6         N/A   WCI  36
* ROGERS PASS  N/A       32  32 100 SE12G23    N/A   WCI  23
* SWEET GRASS  N/A       39  28  65 W23G28     N/A   WCI  28
$$

MTZ011-013-016-021-035-040-045-047-050-051-211900-
NORTH CENTRAL MONTANA
CITY           SKY/WX    TMP DP  RH WIND       PRES   REMARKS
HAVRE          CLOUDY    39  34  82 W9        29.30R WCI  33
LEWISTOWN      CLOUDY    41  30  65 SW13      29.36F
* N BAR RANCH  PTSUNNY   45  30  56 W20G30    29.37R
* CHESTER      N/A       40  31  70 W10G15     N/A   WCI  34
* DENTON       N/A       45  30  56 W16G24     N/A
* GEYSER       N/A       45  27  49 SW29G35    N/A
* JUDITH GAP   N/A       43  28  56 W12G22     N/A
* LOMA         N/A       49  32  52 SW21G30    N/A
$$

MTZ017>020-022>027-061-062-211900-
NORTHEAST MONTANA
CITY           SKY/WX    TMP DP  RH WIND       PRES   REMARKS
GLASGOW        CLOUDY    30  27  89 SE7       29.32F WCI  23
GLENDIVE       CLOUDY    34  27  76 SE7       29.39F WCI  28
JORDAN         CLOUDY    36  36 100 W3        29.34S
SIDNEY         CLOUDY    28  27  96 CALM      29.41F
WOLF POINT     CLOUDY    28  25  89 E7        29.35F WCI  21
* BEAVER HILL  N/A       40  24  53 S21G26     N/A   WCI  30
* CIRCLE       N/A       37  30  76 SW6        N/A   WCI  32
* LINDSAY DVD  N/A       35  26  70 S11        N/A   WCI  27
* SACO         N/A       29  26  89 E4         N/A
$$

MTZ028>042-056>058-211900-
SOUTHCENTRAL AND SOUTHEAST MONTANA
CITY           SKY/WX    TMP DP  RH WIND       PRES   REMARKS
BAKER          CLOUDY    37  32  82 S5        29.41F WCI  33
BILLINGS       PTCLDY    45  28  51 SW15      29.42S
LIVINGSTON     CLOUDY    43 N/A N/A W24G29    29.50F
MILES CITY     LGT RAIN  34  28  79 S12       29.39F WCI  25
* LAUREL APT   PTCLDY    45  25  45 SW11G17    N/A
* ROUNDUP APT  PTSUNNY   43  30  60 SW14G20    N/A
* ALZADA       N/A       39  29  67 SE2        N/A
* HYSHAM       N/A       41  25  53 W8G15      N/A
* LAME DEER    N/A       41  30  65 W12        N/A
* REED POINT   N/A       48  31  52 W15G22     N/A
* ROSCOE HILL  N/A       43  23  45 SW7G14     N/A
$$

REGIONAL REPORTS...DAKOTAS
CITY           SKY/WX    TMP DP  RH WIND       PRES   REMARKS
WILLISTON      CLOUDY    28  25  89 CALM      29.40F
DICKINSON      CLOUDY    37  27  67 S7        29.40F WCI  32
BEACH          CLOUDY    34  28  79 S10       29.39F WCI  26
CROSBY         SUNNY     32  28  85 S8        29.40F WCI  25
WATFORD CITY   PTSUNNY   28  27  96 E8        29.38F WCI  20
BISMARCK       SUNNY     34  28  79 SE9       29.51F WCI  27
GRAND FORKS    CLOUDY    30  28  92 S15       29.66F WCI  19
FARGO          FOG       34  28  79 S16       29.67F WCI  24
BUFFALO SD     PTSUNNY   39  28  65 S5        29.36F WCI  35
RAPID CITY     PTSUNNY   37  27  67 SW3       29.44F
$$

REGIONAL REPORTS...WYOMING/IDAHO/WASHINGTON
CITY           SKY/WX    TMP DP  RH WIND       PRES   REMARKS
GILLETTE       CLOUDY    43  27  53 W6        29.45S
SHERIDAN       LGT RAIN  37  30  76 N7        29.47R WCI  32
CODY           PTCLDY    46  28  50 W15G28    29.49R
YELLOWSTONE LA PTSUNNY   30  25  82 W12G23    29.63F WCI  20
SALMON         CLOUDY    43  34  71 N8        29.72R
MULLAN PASS    CLOUDY   N/A N/A N/A N/A       29.65S
SAND POINT     SUNNY     43  36  76 W16G23    29.69R
SPOKANE        PTSUNNY   45  36  71 W20G28    29.75R

$$




USA.gov is the U.S. government's official web portal to all federal, state and local government web resources and services.